LOT830 EPKK-LFPG

Flight info

Callsign LOT830
Flight time N/A
Altitude 34000
Route ADADO DCT UTEVO DCT ETUDA DCT BEKVI DCT BALTU DCT DONAD DCT OKG L984 KOMIB DCT LOHRE DCT BETEX DCT IDOSA DCT TOLVU/N0428F330 DCT RAPOR DCT VEDUS
Aircraft B738/M-SDE2E3FGHIRWXY/LB1

Departure

Time 2026-05-05 15:12
Airport Kraków John Paul II International Airport (EPKK)

Arrival

Time N/A
Airport Charles de Gaulle International Airport (LFPG)
Time Latitude Longitude Altitude Speed Heading
2026-05-05 14:52 50.07336 19.80207 799 ft 0 kts 168°
2026-05-05 15:06 50.07344 19.80205 799 ft 4 kts 168°
2026-05-05 15:06 50.07371 19.80196 799 ft 4 kts 168°
2026-05-05 15:06 50.07394 19.80189 799 ft 4 kts 165°
2026-05-05 15:06 50.07414 19.80171 799 ft 4 kts 107°
2026-05-05 15:07 50.07414 19.80134 799 ft 2 kts 77°
2026-05-05 15:07 50.07413 19.80124 799 ft 0 kts 77°
2026-05-05 15:08 50.07413 19.80126 799 ft 2 kts 77°
2026-05-05 15:08 50.07422 19.80191 799 ft 10 kts 78°
2026-05-05 15:08 50.07441 19.80327 799 ft 13 kts 73°
2026-05-05 15:09 50.07510 19.80397 799 ft 11 kts 17°
2026-05-05 15:09 50.07589 19.80416 799 ft 12 kts 354°
2026-05-05 15:09 50.07669 19.80396 799 ft 11 kts 347°
2026-05-05 15:09 50.07745 19.80370 799 ft 11 kts 348°
2026-05-05 15:10 50.07820 19.80345 799 ft 11 kts 348°
2026-05-05 15:10 50.07892 19.80321 799 ft 10 kts 348°
2026-05-05 15:10 50.07897 19.80319 799 ft 0 kts 348°
2026-05-05 15:11 50.07908 19.80315 799 ft 5 kts 347°
2026-05-05 15:11 50.07970 19.80294 799 ft 14 kts 347°
2026-05-05 15:11 50.08015 19.80234 799 ft 9 kts 275°
2026-05-05 15:11 50.07986 19.80010 800 ft 53 kts 257°
2026-05-05 15:12 50.07850 19.79054 800 ft 123 kts 257°
2026-05-05 15:12 50.07627 19.77472 871 ft 168 kts 257°
2026-05-05 15:12 50.07410 19.75536 1208 ft 199 kts 259°
2026-05-05 15:12 50.07100 19.73260 1453 ft 225 kts 253°
2026-05-05 15:13 50.06733 19.70800 1808 ft 241 kts 256°
2026-05-05 15:13 50.06364 19.68252 2565 ft 238 kts 254°
2026-05-05 15:13 50.05994 19.65707 3181 ft 250 kts 254°
2026-05-05 15:13 50.05611 19.63053 4115 ft 251 kts 254°
2026-05-05 15:14 50.05231 19.60378 5022 ft 254 kts 253°
2026-05-05 15:14 50.04850 19.57682 5649 ft 254 kts 254°
2026-05-05 15:14 50.04471 19.54996 6213 ft 257 kts 254°
2026-05-05 15:14 50.04081 19.52243 6955 ft 263 kts 254°
2026-05-05 15:15 50.03693 19.49506 7832 ft 263 kts 255°
2026-05-05 15:15 50.03295 19.46713 8629 ft 267 kts 255°
2026-05-05 15:15 50.02888 19.43863 9420 ft 271 kts 255°
2026-05-05 15:15 50.02591 19.40953 10162 ft 279 kts 268°
2026-05-05 15:16 50.02807 19.37818 10402 ft 304 kts 276°
2026-05-05 15:16 50.03160 19.34446 10624 ft 326 kts 276°
2026-05-05 15:16 50.03498 19.31335 11011 ft 337 kts 276°
2026-05-05 15:16 50.03575 19.30627 11131 ft 338 kts 276°
2026-05-05 15:17 50.03965 19.27009 11881 ft 340 kts 276°
2026-05-05 15:17 50.04349 19.23362 12631 ft 343 kts 275°
2026-05-05 15:17 50.04729 19.19665 13376 ft 347 kts 275°
2026-05-05 15:17 50.05106 19.15931 14018 ft 351 kts 275°
2026-05-05 15:18 50.05482 19.12154 14602 ft 356 kts 275°
2026-05-05 15:18 50.05855 19.08382 14793 ft 356 kts 275°
2026-05-05 15:18 50.06230 19.04578 14825 ft 357 kts 275°
2026-05-05 15:18 50.06606 19.00735 14830 ft 359 kts 275°
2026-05-05 15:19 50.06982 18.96883 14825 ft 360 kts 275°
2026-05-05 15:19 50.07357 18.93029 14816 ft 360 kts 275°
2026-05-05 15:19 50.07731 18.89166 14817 ft 360 kts 275°
2026-05-05 15:19 50.08104 18.85310 14818 ft 360 kts 275°
2026-05-05 15:20 50.08475 18.81456 14819 ft 360 kts 275°
2026-05-05 15:20 50.08851 18.77590 14811 ft 361 kts 276°
2026-05-05 15:20 50.09359 18.73709 15106 ft 369 kts 279°
2026-05-05 15:20 50.09748 18.71135 15623 ft 368 kts 280°
2026-05-05 15:21 50.10347 18.67267 16408 ft 368 kts 280°
2026-05-05 15:21 50.10943 18.63374 17043 ft 371 kts 280°
2026-05-05 15:21 50.11725 18.58136 17895 ft 375 kts 280°
2026-05-05 15:21 50.12302 18.54203 18650 ft 373 kts 280°
2026-05-05 15:22 50.12880 18.50224 19123 ft 378 kts 281°
2026-05-05 15:22 50.13262 18.47509 19521 ft 379 kts 279°
2026-05-05 15:22 50.13742 18.43462 20082 ft 382 kts 278°
2026-05-05 15:22 50.14181 18.39336 20433 ft 389 kts 277°
2026-05-05 15:23 50.14609 18.35173 21094 ft 388 kts 277°
2026-05-05 15:23 50.14996 18.30940 21029 ft 404 kts 275°
2026-05-05 15:23 50.15399 18.26677 21801 ft 398 kts 278°
2026-05-05 15:23 50.15862 18.22467 22652 ft 393 kts 279°
2026-05-05 15:24 50.16335 18.18264 23182 ft 396 kts 278°
2026-05-05 15:24 50.16806 18.13998 23419 ft 405 kts 279°
2026-05-05 15:24 50.17278 18.09646 23833 ft 405 kts 278°
2026-05-05 15:24 50.17740 18.05310 24357 ft 405 kts 278°
2026-05-05 15:25 50.18196 18.00975 24889 ft 404 kts 277°
2026-05-05 15:25 50.18650 17.96623 25183 ft 409 kts 278°
2026-05-05 15:25 50.19108 17.92206 25523 ft 413 kts 278°
2026-05-05 15:25 50.19567 17.87773 25893 ft 415 kts 278°
2026-05-05 15:26 50.20028 17.83306 26226 ft 418 kts 277°
2026-05-05 15:26 50.20492 17.78798 26540 ft 422 kts 277°
2026-05-05 15:26 50.20939 17.74280 26981 ft 421 kts 275°
2026-05-05 15:26 50.21095 17.69767 27296 ft 423 kts 269°
2026-05-05 15:27 50.21038 17.65205 27850 ft 420 kts 268°
2026-05-05 15:27 50.20985 17.60615 28074 ft 424 kts 268°
2026-05-05 15:27 50.20975 17.56015 28532 ft 424 kts 269°
2026-05-05 15:27 50.20855 17.51409 28767 ft 426 kts 262°
2026-05-05 15:28 50.20274 17.46866 29044 ft 428 kts 253°
2026-05-05 15:28 50.19401 17.42400 29308 ft 432 kts 252°
2026-05-05 15:28 50.18509 17.37924 29664 ft 432 kts 252°
2026-05-05 15:28 50.17623 17.33467 30130 ft 430 kts 252°
2026-05-05 15:29 50.16743 17.29003 30352 ft 432 kts 252°
2026-05-05 15:29 50.15865 17.24513 30610 ft 433 kts 252°
2026-05-05 15:29 50.14991 17.20023 31042 ft 429 kts 252°
2026-05-05 15:29 50.14128 17.15585 31477 ft 427 kts 253°
2026-05-05 15:30 50.13263 17.11141 31639 ft 431 kts 253°
2026-05-05 15:30 50.12402 17.06728 31968 ft 430 kts 253°
2026-05-05 15:30 50.11535 17.02291 32433 ft 426 kts 253°
2026-05-05 15:30 50.10672 16.97888 32748 ft 426 kts 253°
2026-05-05 15:31 50.09804 16.93467 32950 ft 427 kts 253°
2026-05-05 15:31 50.08934 16.89051 33369 ft 424 kts 253°
2026-05-05 15:31 50.08066 16.84652 33586 ft 426 kts 253°
2026-05-05 15:31 50.07193 16.80240 33801 ft 427 kts 253°
2026-05-05 15:32 50.06319 16.75834 34077 ft 425 kts 253°
2026-05-05 15:32 50.05446 16.71441 34388 ft 423 kts 253°
2026-05-05 15:32 50.04576 16.67070 34624 ft 423 kts 252°
2026-05-05 15:32 50.03706 16.62702 34882 ft 422 kts 253°
2026-05-05 15:33 50.03273 16.60537 35059 ft 420 kts 252°
2026-05-05 15:33 50.02396 16.56158 35377 ft 418 kts 252°
2026-05-05 15:33 50.01697 16.51828 35548 ft 419 kts 260°
2026-05-05 15:33 50.01405 16.47314 35703 ft 420 kts 269°
2026-05-05 15:34 50.01531 16.42764 35921 ft 420 kts 272°
2026-05-05 15:34 50.01732 16.38238 36170 ft 419 kts 273°
2026-05-05 15:34 50.01937 16.33706 36366 ft 419 kts 272°
2026-05-05 15:34 50.02137 16.29188 36540 ft 419 kts 272°
2026-05-05 15:35 50.02329 16.24658 36751 ft 419 kts 272°
2026-05-05 15:35 50.02511 16.20196 36955 ft 418 kts 272°
2026-05-05 15:35 50.02689 16.15678 37124 ft 419 kts 272°
2026-05-05 15:35 50.02863 16.11154 37345 ft 418 kts 272°
2026-05-05 15:36 50.03033 16.06650 37567 ft 416 kts 272°
2026-05-05 15:36 50.03201 16.02152 37727 ft 417 kts 272°
2026-05-05 15:36 50.03367 15.97636 37760 ft 419 kts 272°
2026-05-05 15:37 50.03696 15.88572 37749 ft 419 kts 272°
2026-05-05 15:37 50.04017 15.79553 37744 ft 416 kts 271°
2026-05-05 15:38 50.04330 15.70585 37748 ft 414 kts 271°
2026-05-05 15:38 50.04632 15.61706 37748 ft 413 kts 271°
2026-05-05 15:39 50.04928 15.52796 37750 ft 412 kts 271°
2026-05-05 15:39 50.05218 15.43887 37762 ft 412 kts 271°
2026-05-05 15:40 50.05499 15.35026 37766 ft 412 kts 271°
2026-05-05 15:40 50.05775 15.26114 37769 ft 413 kts 271°
2026-05-05 15:41 50.06045 15.17161 37769 ft 414 kts 271°
2026-05-05 15:41 50.06309 15.08183 37767 ft 415 kts 271°
2026-05-05 15:42 50.06567 14.99194 37766 ft 416 kts 270°
2026-05-05 15:42 50.06819 14.90172 37779 ft 417 kts 270°
2026-05-05 15:43 50.07065 14.81145 37783 ft 417 kts 270°
2026-05-05 15:43 50.07301 14.72171 37779 ft 418 kts 270°
2026-05-05 15:44 50.07476 14.63132 37780 ft 417 kts 269°
2026-05-05 15:44 50.07611 14.54099 37780 ft 417 kts 269°
2026-05-05 15:45 50.07742 14.45086 37769 ft 416 kts 269°
2026-05-05 15:45 50.07873 14.36078 37777 ft 416 kts 269°
2026-05-05 15:46 50.07998 14.27077 37793 ft 415 kts 269°
2026-05-05 15:46 50.08117 14.18088 37773 ft 414 kts 269°
2026-05-05 15:47 50.08228 14.09187 37779 ft 413 kts 269°
2026-05-05 15:47 50.08332 14.00241 37767 ft 412 kts 269°
2026-05-05 15:48 50.08430 13.91312 37762 ft 412 kts 269°
2026-05-05 15:48 50.08520 13.82401 37788 ft 411 kts 268°
2026-05-05 15:49 50.08603 13.73462 37781 ft 412 kts 268°
2026-05-05 15:49 50.08681 13.64530 37765 ft 412 kts 268°
2026-05-05 15:50 50.08750 13.55667 37768 ft 412 kts 268°
2026-05-05 15:50 50.08814 13.46733 37757 ft 412 kts 268°
2026-05-05 15:51 50.08871 13.37849 37770 ft 412 kts 268°
2026-05-05 15:51 50.08877 13.28922 37771 ft 412 kts 266°
2026-05-05 15:52 50.08635 13.19995 37766 ft 413 kts 265°
2026-05-05 15:52 50.08381 13.11059 37798 ft 414 kts 265°
2026-05-05 15:53 50.08152 13.02089 37803 ft 414 kts 265°
2026-05-05 15:53 50.07927 12.93154 37801 ft 415 kts 265°
2026-05-05 15:54 50.07700 12.84175 37807 ft 416 kts 265°
2026-05-05 15:54 50.07465 12.75158 37793 ft 417 kts 265°
2026-05-05 15:55 50.07223 12.66147 37788 ft 417 kts 265°
2026-05-05 15:55 50.06974 12.57135 37782 ft 416 kts 265°
2026-05-05 15:56 50.06719 12.48115 37772 ft 416 kts 265°
2026-05-05 15:56 50.06486 12.39165 37764 ft 417 kts 266°
2026-05-05 15:57 50.06589 12.30128 37774 ft 417 kts 269°
2026-05-05 15:57 50.06755 12.21086 37760 ft 418 kts 268°
2026-05-05 15:58 50.06873 12.12046 37780 ft 418 kts 268°
2026-05-05 15:58 50.06968 12.02993 37785 ft 418 kts 268°
2026-05-05 15:59 50.07053 11.94002 37800 ft 418 kts 267°
2026-05-05 15:59 50.07132 11.84934 37787 ft 419 kts 267°
2026-05-05 16:00 50.07207 11.75840 37789 ft 419 kts 267°
2026-05-05 16:00 50.07275 11.66748 37781 ft 420 kts 267°